Weather History for Naples, FL

Change the Weather History Date:

Sunday, January 27, 2013

  Actual Average Record
Temperature  
Mean Temperature 70 °F 65 °F  
Max Temperature 82 °F 75 °F 88 °F (2002)
Min Temperature 57 °F 55 °F 35 °F (1982)
Degree Days  
Heating Degree Days 0 3  
Month to date heating degree days 7 94  
Since 1 July heating degree days 56 172  
Cooling Degree Days 5 2  
Month to date cooling degree days 167 80  
Year to date cooling degree days 167 80  
Growing Degree Days 20 (Base 50)    
Moisture  
Dew Point 57 °F    
Average Humidity 68    
Maximum Humidity 93    
Minimum Humidity 43    
Precipitation  
Precipitation 0.00 in 0.07 in 2.40 in (1980)
Month to date precipitation 0.11 1.55  
Year to date precipitation 0.11 1.55  
Snow  
Snow 0.00 in - - ()
Month to date snowfall 0.0  
Since 1 July snowfall 0.0  
Snow Depth 0.00 in    
Sea Level Pressure  
Sea Level Pressure 30.23 in    
Wind  
Wind Speed 8 mph (ENE)    
Max Wind Speed 15 mph    
Max Gust Speed 20 mph    
Visibility 10 miles    
Events      
T = Trace of Precipitation, MM = Missing Value Source: NWS Daily Summary

Daily Weather History Graph

Daily Weather History Graph

Search for Another Location

Airport:

Trip Planner

Search our weather history database for the weather conditions in past years. The results will help you decide how hot, cold, wet, or windy it might be!

Date:

Astronomy

Jan. 27, 2013 Rise Set
Actual Time 7:13 AM EST 6:06 PM EST
Civil Twilight 6:49 AM EST 6:31 PM EST
Nautical Twilight 6:21 AM EST 6:58 PM EST
Astronomical Twilight 5:53 AM EST 7:26 PM EST
Moon 6:49 PM EST 7:13 AM EST
Length of Visible Light 11h 41m
Length of Day
10h 53m
Full, 100% of the Moon is Illuminated
Jan 27
Full
Feb 3
Last Quarter
Feb 10
New
Feb 17
First Quarter
Feb 25
Full

Hourly Weather History & Observations

Time (EST) Temp. Heat Index Dew Point Humidity Pressure Visibility Wind Dir Wind Speed Gust Speed Precip Events Conditions
12:53 AM 59.0 °F - 53.1 °F 81% 30.22 in 10.0 mi North 4.6 mph - N/A   Clear
1:53 AM 57.9 °F - 52.0 °F 81% 30.22 in 10.0 mi NE 3.5 mph - N/A   Clear
2:53 AM 57.9 °F - 51.1 °F 78% 30.21 in 10.0 mi NNE 3.5 mph - N/A   Clear
3:53 AM 57.0 °F - 51.1 °F 81% 30.21 in 10.0 mi NE 4.6 mph - N/A   Clear
4:53 AM 57.9 °F - 54.0 °F 87% 30.21 in 9.0 mi NE 5.8 mph - N/A   Clear
5:53 AM 57.0 °F - 55.0 °F 93% 30.21 in 8.0 mi NE 4.6 mph - N/A   Clear
6:53 AM 57.9 °F - 55.9 °F 93% 30.23 in 8.0 mi NE 5.8 mph - N/A   Clear
7:53 AM 59.0 °F - 57.0 °F 93% 30.25 in 7.0 mi NE 6.9 mph - N/A   Clear
8:53 AM 64.9 °F - 57.9 °F 78% 30.26 in 10.0 mi NE 9.2 mph - N/A   Clear
9:53 AM 72.0 °F - 57.9 °F 61% 30.27 in 10.0 mi NE 12.7 mph - N/A   Clear
10:53 AM 75.9 °F - 60.1 °F 58% 30.27 in 10.0 mi East 8.1 mph - N/A   Clear
11:53 AM 78.1 °F - 61.0 °F 56% 30.26 in 10.0 mi ENE 10.4 mph - N/A   Partly Cloudy
12:53 PM 79.0 °F - 59.0 °F 50% 30.23 in 10.0 mi ESE 11.5 mph - N/A   Partly Cloudy
1:53 PM 81.0 °F 81.1 °F 57.9 °F 45% 30.20 in 10.0 mi ENE 9.2 mph - N/A   Partly Cloudy
2:53 PM 82.0 °F 82.0 °F 57.9 °F 44% 30.19 in 8.0 mi ENE 9.2 mph 17.3 mph N/A   Scattered Clouds
3:53 PM 81.0 °F 81.0 °F 57.0 °F 44% 30.19 in 10.0 mi ENE 10.4 mph - N/A   Overcast
4:53 PM 80.1 °F 80.4 °F 57.0 °F 45% 30.19 in 10.0 mi East 11.5 mph - N/A   Overcast
5:53 PM 77.0 °F - 57.0 °F 50% 30.22 in 10.0 mi ENE 8.1 mph - N/A   Mostly Cloudy
6:53 PM 73.9 °F - 57.0 °F 55% 30.24 in 10.0 mi ENE 8.1 mph - N/A   Partly Cloudy
7:53 PM 72.0 °F - 57.9 °F 61% 30.25 in 10.0 mi East 8.1 mph - N/A   Mostly Cloudy
8:53 PM 73.0 °F - 59.0 °F 61% 30.26 in 10.0 mi East 10.4 mph - N/A   Overcast
9:53 PM 71.1 °F - 59.0 °F 66% 30.26 in 10.0 mi East 9.2 mph - N/A   Overcast
10:53 PM 69.1 °F - 59.0 °F 70% 30.26 in 10.0 mi East 6.9 mph - N/A   Clear
11:53 PM 68.0 °F - 59.0 °F 73% 30.25 in 10.0 mi ENE 8.1 mph - N/A   Clear